Location: Milton Keynes
(52.0316°N, 0.7531°W)
Time: 00:11:36
(UTC+01:00)

Envisat - Visible Passes

Search period start: 11 October 2024 00:00
Search period end: 21 October 2024 00:00
Orbit: 762 x 764 km, 98.3° (Epoch: 10 October)

Date Brightness Start Highest point End Pass type
(mag) Time Alt. Az. Time Alt. Az. Time Alt. Az.
11 Oct 4.1 03:43:48 10° NNE 03:48:27 40° E 03:48:27 40° E visible
11 Oct 3.6 05:22:54 10° N 05:27:31 36° WNW 05:28:35 32° W visible
12 Oct 5.2 03:06:57 10° NE 03:10:24 20° E 03:10:24 20° E visible
12 Oct 2.8 04:45:09 10° N 04:50:12 69° WNW 04:50:32 66° W visible
12 Oct 4.7 06:25:39 10° NNW 06:28:18 14° NW 06:30:40 11° W visible
13 Oct 3.3 04:07:38 10° NNE 04:12:28 61° E 04:12:28 61° E visible
13 Oct 4.1 05:47:13 10° N 05:51:18 25° WNW 05:52:36 22° W visible
14 Oct 4.6 03:30:28 10° NNE 03:34:24 31° E 03:34:24 31° E visible
14 Oct 3.3 05:09:17 10° N 05:14:07 45° WNW 05:14:33 44° W visible
15 Oct 5.5 02:53:55 10° NE 02:56:20 16° ENE 02:56:20 16° ENE visible
15 Oct 2.9 04:31:36 10° NNE 04:36:28 81° N 04:36:28 81° N visible
15 Oct 4.5 06:11:43 10° NNW 06:14:59 18° NW 06:16:36 15° WNW visible
16 Oct 3.9 03:54:12 10° NNE 03:58:24 45° ENE 03:58:24 45° ENE visible
16 Oct 3.8 05:33:31 10° N 05:37:55 30° WNW 05:38:32 30° WNW visible
17 Oct 5.0 03:17:11 10° NE 03:20:20 23° ENE 03:20:20 23° ENE visible
17 Oct 3.1 04:55:40 10° N 05:00:28 56° WNW 05:00:28 56° WNW visible
17 Oct 4.9 06:36:39 10° NNW 06:38:36 12° NW 06:40:34 10° WNW visible
18 Oct 5.8 02:41:11 10° ENE 02:42:16 12° ENE 02:42:16 12° ENE visible
18 Oct 3.3 04:18:05 10° NNE 04:22:24 62° NE 04:22:24 62° NE visible
18 Oct 4.2 05:57:53 10° N 06:01:39 21° WNW 06:02:32 20° WNW visible
19 Oct 4.5 03:40:47 10° NNE 03:44:19 33° ENE 03:44:19 33° ENE visible
19 Oct 3.5 05:19:50 10° N 05:24:27 38° WNW 05:24:27 38° WNW visible
20 Oct 5.4 03:03:59 10° NE 03:06:14 18° ENE 03:06:14 18° ENE visible
20 Oct 3.2 04:42:05 10° NNE 04:46:22 60° NNW 04:46:22 60° NNW visible
20 Oct 4.6 06:22:30 10° NNW 06:25:17 15° NW 06:26:30 14° WNW visible
